Leesburg, FL

4:45 AM EDT on September 21, 2019 (GMT -0400)
Leesburg Regional

Weather History for KLEE - August, 2019

Change the Weather History Date:

Monday, August 19, 2019

  Actual Average Record
Temperature  
Mean Temperature 83 °F -  
Max Temperature 93 °F 92 °F 96 °F (2005)
Min Temperature 73 °F 73 °F 67 °F (1960)
Cooling Degree Days 18    
Growing Degree Days 33 (Base 50)    
Moisture  
Dew Point 72 °F    
Average Humidity 75    
Maximum Humidity 94    
Minimum Humidity 47    
Precipitation  
Precipitation 0.00 in - - ()
Sea Level Pressure  
Sea Level Pressure 30.09 in    
Wind  
Wind Speed 4 mph (ENE)    
Max Wind Speed 25 mph    
Max Gust Speed 34 mph    
Visibility 10 miles    
Events Rain , Thunderstorm    
Averages and records for this station are not official NWS values.
T = Trace of Precipitation, MM = Missing Value Source: NWS Daily Summary

Daily Weather History Graph

Daily Weather History Graph

Search for Another Location

Airport or City:

Astronomy

Aug. 19, 2019 Rise Set
Actual Time 6:58 AM EDT 8:03 PM EDT
Civil Twilight 6:33 AM EDT 8:27 PM EDT
Nautical Twilight 6:04 AM EDT 8:56 PM EDT
Astronomical Twilight 5:34 AM EDT 9:26 PM EDT
Moon 10:41 PM EDT (8/19) 10:23 AM EDT (8/19)
Length of Visible Light 13h 53m
Length of Day
13h 04m
Waning Gibbous, 85% of the Moon is Illuminated
Aug 19
Waning Gibbous
Aug 23
Last Quarter
Aug 30
New
Sep 5
First Quarter
Sep 14
Full

Hourly Weather History & Observations

Time (EDT) Temp. Heat Index Dew Point Humidity Pressure Visibility Wind Dir Wind Speed Gust Speed Precip Events Conditions
12:53 AM 75.9 °F - 72.0 °F 87% 30.12 in 10.0 mi SE 3.5 mph - N/A   Clear
1:53 AM 75.0 °F - 72.0 °F 90% 30.12 in 10.0 mi Calm Calm - N/A   Clear
2:53 AM 73.9 °F - 72.0 °F 93% 30.10 in 10.0 mi Calm Calm - N/A   Clear
3:53 AM 75.0 °F - 73.0 °F 94% 30.08 in 10.0 mi NW 5.8 mph - N/A   Clear
4:53 AM 73.9 °F - 72.0 °F 93% 30.07 in 10.0 mi Calm Calm - N/A   Clear
5:53 AM 73.9 °F - 72.0 °F 93% 30.07 in 10.0 mi NNW 3.5 mph - N/A   Clear
6:53 AM 73.9 °F - 72.0 °F 93% 30.08 in 10.0 mi Calm Calm - N/A   Clear
7:53 AM 75.9 °F - 73.9 °F 94% 30.10 in 10.0 mi Calm Calm - N/A   Clear
8:53 AM 80.1 °F 85.1 °F 75.0 °F 85% 30.11 in 10.0 mi Calm Calm - N/A   Clear
9:53 AM 84.0 °F 90.2 °F 73.0 °F 69% 30.12 in 10.0 mi Calm Calm - N/A   Clear
10:53 AM 86.0 °F 93.8 °F 73.9 °F 67% 30.13 in 10.0 mi SSE 4.6 mph - N/A   Clear
11:53 AM 87.1 °F 93.6 °F 72.0 °F 61% 30.13 in 10.0 mi ESE 4.6 mph - N/A   Clear
12:53 PM 90.0 °F 95.4 °F 70.0 °F 52% 30.12 in 10.0 mi Variable 3.5 mph - N/A   Clear
1:53 PM 91.0 °F 95.6 °F 69.1 °F 48% 30.10 in 10.0 mi South 6.9 mph - N/A   Clear
2:53 PM 91.9 °F 98.4 °F 71.1 °F 50% 30.08 in 10.0 mi NW 6.9 mph - N/A   Clear
3:53 PM 93.0 °F 99.0 °F 70.0 °F 47% 30.06 in 10.0 mi North 6.9 mph - N/A   Clear
4:53 PM 93.0 °F 100.1 °F 71.1 °F 49% 30.03 in 10.0 mi NW 5.8 mph - N/A Thunderstorm Clear
5:19 PM 86.0 °F 91.5 °F 71.1 °F 61% 30.05 in 10.0 mi ESE 25.3 mph 34.5 mph N/A   Scattered Clouds
5:35 PM 81.0 °F 85.2 °F 72.0 °F 74% 30.06 in 10.0 mi ESE 19.6 mph 28.8 mph N/A   Scattered Clouds
5:53 PM 82.0 °F 86.7 °F 72.0 °F 71% 30.06 in 10.0 mi East 15.0 mph 25.3 mph 0.00 in Rain Light Rain
6:53 PM 82.0 °F 87.4 °F 73.0 °F 74% 30.04 in 10.0 mi South 6.9 mph - 0.00 in   Clear
7:53 PM 81.0 °F 85.8 °F 73.0 °F 77% 30.04 in 10.0 mi Calm Calm - N/A   Clear
8:53 PM 80.1 °F 84.2 °F 73.0 °F 79% 30.07 in 10.0 mi NE 5.8 mph - N/A   Clear
9:53 PM 80.1 °F 84.2 °F 73.0 °F 79% 30.09 in 10.0 mi NE 3.5 mph - N/A   Clear
10:53 PM 79.0 °F - 73.9 °F 84% 30.13 in 10.0 mi Calm Calm - N/A   Clear
11:53 PM 78.1 °F - 73.9 °F 87% 30.13 in 10.0 mi ENE 3.5 mph - N/A   Clear